Sedona, AZ

11:53 PM MST on October 21, 2019 (GMT -0700)
Sedona

Weather History for KSEZ - September, 2019

Change the Weather History Date:

Wednesday, September 18, 2019

  Actual Average Record
Temperature  
Mean Temperature 75 °F -  
Max Temperature 86 °F 87 °F 96 °F (2010)
Min Temperature 64 °F 56 °F 59 °F (2011)
Cooling Degree Days 10    
Growing Degree Days 25 (Base 50)    
Moisture  
Dew Point 47 °F    
Average Humidity 39    
Maximum Humidity 64    
Minimum Humidity 22    
Precipitation  
Precipitation 0.00 in - - ()
Sea Level Pressure  
Sea Level Pressure 30.08 in    
Wind  
Wind Speed 6 mph (South)    
Max Wind Speed 21 mph    
Max Gust Speed 31 mph    
Visibility 10 miles    
Events      
Averages and records for this station are not official NWS values.
T = Trace of Precipitation, MM = Missing Value Source: NWS Daily Summary

Daily Weather History Graph

Daily Weather History Graph

Search for Another Location

Airport or City:

Astronomy

Sep. 18, 2019 Rise Set
Actual Time 6:12 AM MST 6:29 PM MST
Civil Twilight 5:46 AM MST 6:55 PM MST
Nautical Twilight 5:17 AM MST 7:24 PM MST
Astronomical Twilight 4:47 AM MST 7:54 PM MST
Moon 9:15 PM MST (9/18) 10:10 AM MST (9/18)
Length of Visible Light 13h 08m
Length of Day
12h 17m
Waning Gibbous, 82% of the Moon is Illuminated
Sep 18
Waning Gibbous
Sep 21
Last Quarter
Sep 28
New
Oct 5
First Quarter
Oct 13
Full

Hourly Weather History & Observations

Time (MST) Temp. Dew Point Humidity Pressure Visibility Wind Dir Wind Speed Gust Speed Precip Events Conditions
12:15 AM 69.8 °F 51.8 °F 53% 30.09 in 10.0 mi South 3.5 mph - N/A   Mostly Cloudy
12:35 AM 69.8 °F 51.8 °F 53% 30.10 in 10.0 mi SSW 4.6 mph - N/A   Mostly Cloudy
12:55 AM 68.0 °F 51.8 °F 56% 30.10 in 10.0 mi South 3.5 mph - N/A   Mostly Cloudy
1:15 AM 68.0 °F 51.8 °F 56% 30.10 in 10.0 mi SE 3.5 mph - N/A   Scattered Clouds
1:35 AM 68.0 °F 51.8 °F 56% 30.10 in 10.0 mi Calm Calm - N/A   Clear
1:55 AM 68.0 °F 51.8 °F 56% 30.10 in 10.0 mi Calm Calm - N/A   Clear
2:15 AM 68.0 °F 51.8 °F 56% 30.10 in 10.0 mi Calm Calm - N/A   Clear
2:35 AM 68.0 °F 51.8 °F 56% 30.09 in 10.0 mi Calm Calm - N/A   Scattered Clouds
2:55 AM 68.0 °F 51.8 °F 56% 30.09 in 10.0 mi Calm Calm - N/A   Mostly Cloudy
3:15 AM 66.2 °F 51.8 °F 60% 30.09 in 10.0 mi Calm Calm - N/A   Scattered Clouds
3:35 AM 66.2 °F 51.8 °F 60% 30.09 in 10.0 mi Calm Calm - N/A   Mostly Cloudy
3:55 AM 66.2 °F 51.8 °F 60% 30.09 in 10.0 mi Calm Calm - N/A   Mostly Cloudy
4:15 AM 68.0 °F 51.8 °F 56% 30.08 in 10.0 mi Calm Calm - N/A   Scattered Clouds
4:35 AM 66.2 °F 51.8 °F 60% 30.08 in 10.0 mi Calm Calm - N/A   Scattered Clouds
4:55 AM 64.4 °F 51.8 °F 64% 30.09 in 10.0 mi NNE 3.5 mph - N/A   Mostly Cloudy
5:15 AM 64.4 °F 51.8 °F 64% 30.09 in 10.0 mi Calm Calm - N/A   Mostly Cloudy
5:35 AM 64.4 °F 50.0 °F 59% 30.09 in 10.0 mi Calm Calm - N/A   Mostly Cloudy
5:55 AM 64.4 °F 51.8 °F 64% 30.10 in 10.0 mi Calm Calm - N/A   Scattered Clouds
6:15 AM 64.4 °F 50.0 °F 59% 30.10 in 10.0 mi Calm Calm - N/A   Scattered Clouds
6:35 AM 64.4 °F 50.0 °F 59% 30.10 in 10.0 mi North 4.6 mph - N/A   Clear
6:55 AM 64.4 °F 50.0 °F 59% 30.11 in 10.0 mi Calm Calm - N/A   Clear
7:15 AM 68.0 °F 51.8 °F 56% 30.11 in 10.0 mi Calm Calm - N/A   Clear
7:35 AM 69.8 °F 51.8 °F 53% 30.12 in 10.0 mi Calm Calm - N/A   Clear
7:55 AM 71.6 °F 51.8 °F 50% 30.12 in 10.0 mi SE 3.5 mph - N/A   Clear
8:15 AM 73.4 °F 51.8 °F 47% 30.13 in 10.0 mi SE 4.6 mph - N/A   Clear
8:35 AM 75.2 °F 51.8 °F 44% 30.13 in 10.0 mi SSE 5.8 mph - N/A   Clear
8:55 AM 77.0 °F 53.6 °F 44% 30.14 in 10.0 mi SSE 4.6 mph - N/A   Scattered Clouds
9:15 AM 78.8 °F 53.6 °F 42% 30.14 in 10.0 mi SSE 6.9 mph - N/A   Clear
9:35 AM 78.8 °F 53.6 °F 42% 30.14 in 10.0 mi SSE 9.2 mph - N/A   Scattered Clouds
9:55 AM 82.4 °F 51.8 °F 35% 30.14 in 10.0 mi SSE 13.8 mph 18.4 mph N/A   Mostly Cloudy
10:15 AM 82.4 °F 51.8 °F 35% 30.14 in 10.0 mi SSE 11.5 mph 18.4 mph N/A   Scattered Clouds
10:55 AM 82.4 °F 51.8 °F 35% 30.13 in 10.0 mi SSW 11.5 mph 17.3 mph N/A   Clear
11:15 AM 82.4 °F 50.0 °F 32% 30.12 in 10.0 mi South 9.2 mph 20.7 mph N/A   Scattered Clouds
11:35 AM 80.6 °F 48.2 °F 32% 30.11 in 10.0 mi SW 17.3 mph 25.3 mph N/A   Scattered Clouds
11:55 AM 80.6 °F 48.2 °F 32% 30.11 in 10.0 mi SW 13.8 mph 23.0 mph N/A   Scattered Clouds
12:15 PM 82.4 °F 46.4 °F 28% 30.10 in 10.0 mi SSW 11.5 mph 26.5 mph N/A   Scattered Clouds
12:35 PM 80.6 °F 44.6 °F 28% 30.10 in 10.0 mi South 11.5 mph 25.3 mph N/A   Scattered Clouds
12:55 PM 84.2 °F 42.8 °F 23% 30.08 in 10.0 mi SSW 18.4 mph 27.6 mph N/A   Scattered Clouds
1:15 PM 84.2 °F 44.6 °F 25% 30.08 in 10.0 mi SSW 13.8 mph 31.1 mph N/A   Scattered Clouds
1:35 PM 82.4 °F 42.8 °F 25% 30.07 in 10.0 mi SSE 16.1 mph 28.8 mph N/A   Scattered Clouds
1:55 PM 84.2 °F 42.8 °F 23% 30.07 in 10.0 mi SW 13.8 mph 25.3 mph N/A   Scattered Clouds
2:15 PM 86.0 °F 42.8 °F 22% 30.06 in 10.0 mi SSW 6.9 mph 25.3 mph N/A   Scattered Clouds
2:35 PM 86.0 °F 42.8 °F 22% 30.06 in 10.0 mi South 11.5 mph 23.0 mph N/A   Scattered Clouds
2:55 PM 84.2 °F 42.8 °F 23% 30.05 in 10.0 mi South 17.3 mph 23.0 mph N/A   Scattered Clouds
3:15 PM 86.0 °F 42.8 °F 22% 30.04 in 10.0 mi South 13.8 mph 25.3 mph N/A   Scattered Clouds
3:35 PM 86.0 °F 42.8 °F 22% 30.04 in 10.0 mi South 19.6 mph 28.8 mph N/A   Scattered Clouds
3:55 PM 84.2 °F 41.0 °F 22% 30.04 in 10.0 mi South 16.1 mph 24.2 mph N/A   Scattered Clouds
4:15 PM 84.2 °F 41.0 °F 22% 30.02 in 10.0 mi South 20.7 mph 26.5 mph N/A   Clear
4:35 PM 82.4 °F 41.0 °F 23% 30.02 in 10.0 mi South 18.4 mph 24.2 mph N/A   Scattered Clouds
4:55 PM 80.6 °F 41.0 °F 24% 30.03 in 10.0 mi SSW 12.7 mph 23.0 mph N/A   Scattered Clouds
5:15 PM 80.6 °F 41.0 °F 24% 30.02 in 10.0 mi SSE 15.0 mph 25.3 mph N/A   Scattered Clouds
5:35 PM 80.6 °F 41.0 °F 24% 30.03 in 10.0 mi South 17.3 mph 24.2 mph N/A   Clear
5:55 PM 80.6 °F 41.0 °F 24% 30.03 in 10.0 mi South 15.0 mph 24.2 mph N/A   Clear
6:15 PM 78.8 °F 41.0 °F 26% 30.03 in 10.0 mi SSE 10.4 mph 23.0 mph N/A   Scattered Clouds
6:30 PM 78.8 °F 41.0 °F 26% 30.03 in 10.0 mi South 15.0 mph 24.2 mph N/A   Scattered Clouds
6:55 PM 77.0 °F 41.0 °F 28% 30.03 in 10.0 mi South 11.5 mph 19.6 mph N/A   Clear
7:15 PM 77.0 °F 41.0 °F 28% 30.04 in 10.0 mi South 13.8 mph 18.4 mph N/A   Clear
7:35 PM 77.0 °F 41.0 °F 28% 30.04 in 10.0 mi SSE 12.7 mph 19.6 mph N/A   Clear
7:55 PM 75.2 °F 41.0 °F 29% 30.04 in 10.0 mi SSE 12.7 mph 20.7 mph N/A   Clear
8:15 PM 75.2 °F 41.0 °F 29% 30.04 in 10.0 mi SSE 12.7 mph 18.4 mph N/A   Clear
8:35 PM 75.2 °F 41.0 °F 29% 30.04 in 10.0 mi SSE 13.8 mph 19.6 mph N/A   Clear
8:55 PM 73.4 °F 39.2 °F 29% 30.05 in 10.0 mi SSE 11.5 mph - N/A   Clear
9:15 PM 73.4 °F 39.2 °F 29% 30.05 in 10.0 mi SSE 11.5 mph 17.3 mph N/A   Clear
9:35 PM 73.4 °F 41.0 °F 31% 30.05 in 10.0 mi SSE 10.4 mph - N/A   Clear
9:55 PM 73.4 °F 41.0 °F 31% 30.04 in 10.0 mi SSE 11.5 mph 16.1 mph N/A   Clear
10:15 PM 73.4 °F 41.0 °F 31% 30.04 in 10.0 mi South 6.9 mph - N/A   Clear
10:35 PM 71.6 °F 41.0 °F 33% 30.04 in 10.0 mi SE 8.1 mph - N/A   Clear
10:55 PM 71.6 °F 41.0 °F 33% 30.04 in 10.0 mi SSE 5.8 mph - N/A   Clear
11:15 PM 71.6 °F 41.0 °F 33% 30.04 in 10.0 mi SE 5.8 mph - N/A   Clear
11:35 PM 71.6 °F 41.0 °F 33% 30.04 in 10.0 mi ESE 4.6 mph - N/A   Clear
11:55 PM 69.8 °F 41.0 °F 35% 30.04 in 10.0 mi ESE 4.6 mph - N/A   Clear